This is the latest recevied weather packets stored in our database for station/object G1YBJ-13. If no packets are shown the sender has not sent any weather packets the latest 10 day(s).
| Time | Temp. | Humidity | Pressure | Rain* | Wind** | Luminosity | Snow |
|---|---|---|---|---|---|---|---|
| 1777551338 | 24.44° C | 41% | 1023.1 hPa | - | - | - | - |
| 1777550437 | 23.89° C | 40% | 1023.1 hPa | - | - | - | - |
| 1777549536 | 23.89° C | 40% | 1023.2 hPa | - | - | - | - |
| 1777548635 | 23.33° C | 42% | 1023.5 hPa | - | - | - | - |
| 1777547734 | 23.33° C | 44% | 1023.5 hPa | - | - | - | - |
| 1777546834 | 22.78° C | 46% | 1023.6 hPa | - | - | - | - |
| 1777545933 | 22.22° C | 46% | 1023.7 hPa | - | - | - | - |
| 1777545031 | 21.67° C | 49% | 1023.8 hPa | - | - | - | - |
| 1777544130 | 21.67° C | 49% | 1023.9 hPa | - | - | - | - |
| 1777543230 | 20.56° C | 51% | 1023.9 hPa | - | - | - | - |
| 1777542327 | 19.44° C | 52% | 1024 hPa | - | - | - | - |
| 1777541426 | 18.89° C | 54% | 1024.2 hPa | - | - | - | - |
| 1777540525 | 18.33° C | 55% | 1024.3 hPa | - | - | - | - |
| 1777539623 | 17.22° C | 57% | 1024.4 hPa | - | - | - | - |
| 1777538723 | 16.67° C | 59% | 1024.6 hPa | - | - | - | - |
| 1777537821 | 16.11° C | 60% | 1024.7 hPa | - | - | - | - |
| 1777536919 | 15° C | 61% | 1024.8 hPa | - | - | - | - |
| 1777536019 | 14.44° C | 63% | 1024.8 hPa | - | - | - | - |
| 1777535117 | 13.33° C | 64% | 1024.9 hPa | - | - | - | - |
| 1777534215 | 12.78° C | 66% | 1025 hPa | - | - | - | - |
| 1777533314 | 12.22° C | 68% | 1025 hPa | - | - | - | - |
| 1777532413 | 11.11° C | 71% | 1025 hPa | - | - | - | - |
| 1777531512 | 10.56° C | 71% | 1025.2 hPa | - | - | - | - |
| 1777530610 | 9.44° C | 75% | 1025.1 hPa | - | - | - | - |
| 1777529709 | 8.89° C | 76% | 1025.1 hPa | - | - | - | - |
* Rain since midnight (hover to see other rain measurements)
** Current wind speed in m/s (hover to see current wind gust speed)